Flag for Yemen Weather past 2 weeks in Ta'izz, Yemen

Now
81 °F

Scattered clouds.


Feels Like: 81 °F
Forecast: 71 / 83 °F
Wind: 14 mph from West

Location: Taiz

Current Time: Jul 25, 2014 at 7:59:27 PM

Latest Report: Jul 25, 2014 at 6:00 PM


Visibility: N/A

Pressure: 29.95 "Hg

Humidity: 48%

Dew point: 59 °F

Location of Ta'izzLocation

Historic Weather in Ta'izz — Graph

°F

Ta'izz temperature yesterday

Maximum temperature yesterday: 82 °F (at 4:00 PM)
Minimum temperature yesterday: 75 °F (at 12:00 AM)
Average temperature yesterday: 79 °F

Past Weeks' High & Low Weather Summary

 TemperatureHumidityPressure
High91 °F (Jul 17, 1:00 PM)83% (Jul 11, 9:00 PM)30.09 "Hg (Jul 11, 9:00 PM)
Low64 °F (Jul 12, 5:00 AM)21% (Jul 13, 3:00 PM)29.89 "Hg (Jul 14, 3:00 PM)
Average79 °F51%29.97 "Hg
* Reported Jul 10 6:00 PM — Jul 25 6:00 PM, Ta'izz, Weather by CustomWeather, © 2014

Note: Actual official high and low records may vary slightly from our data, if they occured in-between our weather recording intervals... More about our weather records

Advertising

Ta'izz weather history for previous 24 hours

 ConditionsComfort  
Time TempWeatherWind HumidityBarometerVisibility
6:00 PM
Jul 25
81 °FScattered clouds.14 mph48%29.95 "HgN/A
5:00 PM82 °FScattered clouds.13 mph48%29.95 "Hg5 mi
4:00 PM82 °FScattered clouds.17 mph45%29.92 "Hg5 mi
3:00 PM81 °FThunderstorms. Scattered clouds.14 mph42%29.92 "Hg5 mi
2:00 PM84 °FScattered clouds.21 mph33%29.95 "Hg5 mi
11:00 AM82 °FClear.18 mph48%30.01 "Hg4 mi
9:00 AM79 °FClear.18 mph45%30.01 "Hg4 mi
8:00 AM73 °FClear.14 mph50%30.01 "Hg5 mi
7:00 AM73 °FSunny.9 mph57%29.98 "Hg10 mi
5:00 AM72 °FMild.8 mph65%29.92 "HgN/A
4:00 AM73 °FMild.9 mph61%29.92 "HgN/A
3:00 AM73 °FClear.10 mph65%29.92 "Hg4 mi
2:00 AM75 °FClear.8 mph69%29.95 "Hg4 mi
12:00 AM77 °FWarm.No wind65%29.98 "HgN/A
11:00 PM
Jul 24
77 °FDuststorm.5 mph65%29.98 "Hg3 mi
9:00 PM77 °FDuststorm.3 mph61%29.98 "Hg3 mi
Weather by CustomWeather, © 2014

See weather overviewHow to use our weather pages